VOE3592 LEAS-LEMD

Flight info

Callsign VOE3592
Flight time N/A
Altitude 29000
Route KUVAN Y27 LARVO DCT ZMR
Aircraft A320/M-SDE3FGHIRWY/LB1

Departure

Time 2026-04-25 13:15
Airport Asturias Airport (LEAS)

Arrival

Time N/A
Airport Adolfo Suárez Madrid–Barajas Airport (LEMD)
Time Latitude Longitude Altitude Speed Heading
2026-04-25 12:40 43.55996 -6.03181 426 ft 0 kts 269°
2026-04-25 13:09 43.56002 -6.03184 426 ft 1 kts 336°
2026-04-25 13:09 43.56022 -6.03174 417 ft 3 kts 12°
2026-04-25 13:10 43.56055 -6.03208 420 ft 9 kts 309°
2026-04-25 13:10 43.56104 -6.03219 421 ft 7 kts 28°
2026-04-25 13:10 43.56117 -6.03156 425 ft 9 kts 97°
2026-04-25 13:10 43.56091 -6.03042 419 ft 16 kts 108°
2026-04-25 13:11 43.56052 -6.02880 424 ft 20 kts 108°
2026-04-25 13:11 43.56009 -6.02687 424 ft 22 kts 107°
2026-04-25 13:11 43.55967 -6.02513 422 ft 19 kts 108°
2026-04-25 13:11 43.55944 -6.02380 425 ft 12 kts 85°
2026-04-25 13:12 43.55964 -6.02311 420 ft 1 kts 63°
2026-04-25 13:12 43.55966 -6.02306 417 ft 0 kts 63°
2026-04-25 13:13 43.55978 -6.02274 423 ft 8 kts 63°
2026-04-25 13:13 43.56026 -6.02208 418 ft 10 kts 24°
2026-04-25 13:14 43.56067 -6.02234 413 ft 8 kts 296°
2026-04-25 13:14 43.56071 -6.02253 416 ft 0 kts 288°
2026-04-25 13:14 43.56085 -6.02311 414 ft 33 kts 288°
2026-04-25 13:14 43.56242 -6.02978 426 ft 108 kts 288°
2026-04-25 13:15 43.56545 -6.04224 475 ft 159 kts 293°
2026-04-25 13:15 43.56874 -6.05654 1190 ft 156 kts 291°
2026-04-25 13:15 43.57212 -6.07085 1821 ft 165 kts 291°
2026-04-25 13:15 43.57606 -6.08681 2175 ft 186 kts 290°
2026-04-25 13:16 43.58038 -6.10477 2536 ft 208 kts 289°
2026-04-25 13:16 43.58497 -6.12442 3041 ft 222 kts 288°
2026-04-25 13:16 43.58983 -6.14527 3710 ft 234 kts 287°
2026-04-25 13:16 43.59120 -6.16755 4524 ft 237 kts 253°
2026-04-25 13:17 43.58260 -6.18635 5377 ft 234 kts 213°
2026-04-25 13:17 43.56839 -6.19611 6296 ft 229 kts 198°
2026-04-25 13:17 43.55320 -6.20246 7203 ft 229 kts 194°
2026-04-25 13:17 43.53768 -6.20818 8003 ft 232 kts 194°
2026-04-25 13:18 43.52203 -6.21404 8853 ft 234 kts 195°
2026-04-25 13:18 43.50618 -6.22028 9657 ft 238 kts 196°
2026-04-25 13:18 43.49018 -6.22689 10471 ft 241 kts 197°
2026-04-25 13:18 43.47409 -6.23373 11258 ft 244 kts 196°
2026-04-25 13:19 43.45706 -6.23842 11782 ft 260 kts 189°
2026-04-25 13:19 43.43839 -6.24262 12113 ft 284 kts 189°
2026-04-25 13:19 43.41807 -6.24715 12405 ft 307 kts 189°
2026-04-25 13:19 43.40375 -6.25035 12615 ft 322 kts 189°
2026-04-25 13:20 43.37348 -6.25718 13434 ft 335 kts 189°
2026-04-25 13:20 43.35031 -6.26248 14173 ft 340 kts 189°
2026-04-25 13:20 43.32680 -6.26789 14843 ft 345 kts 189°
2026-04-25 13:20 43.30291 -6.27335 15508 ft 349 kts 189°
2026-04-25 13:21 43.27880 -6.27884 16164 ft 353 kts 189°
2026-04-25 13:21 43.25441 -6.28441 16814 ft 358 kts 189°
2026-04-25 13:21 43.22963 -6.29006 17437 ft 363 kts 189°
2026-04-25 13:21 43.20484 -6.29568 18061 ft 368 kts 189°
2026-04-25 13:22 43.17909 -6.30150 18692 ft 372 kts 189°
2026-04-25 13:22 43.15374 -6.30725 19265 ft 376 kts 189°
2026-04-25 13:22 43.12764 -6.31173 19818 ft 380 kts 182°
2026-04-25 13:23 43.07506 -6.30101 20922 ft 387 kts 161°
2026-04-25 13:23 43.04930 -6.28937 21464 ft 392 kts 161°
2026-04-25 13:23 43.02334 -6.27777 22052 ft 394 kts 161°
2026-04-25 13:23 42.99722 -6.26622 22627 ft 396 kts 162°
2026-04-25 13:24 42.97087 -6.25458 23138 ft 400 kts 161°
2026-04-25 13:24 42.94425 -6.24279 23654 ft 403 kts 161°
2026-04-25 13:24 42.91741 -6.23089 24108 ft 407 kts 161°
2026-04-25 13:24 42.89041 -6.21888 24541 ft 410 kts 161°
2026-04-25 13:25 42.86323 -6.20682 24982 ft 413 kts 161°
2026-04-25 13:25 42.83579 -6.19471 25416 ft 415 kts 161°
2026-04-25 13:25 42.80856 -6.18273 25840 ft 418 kts 161°
2026-04-25 13:25 42.78078 -6.17050 26263 ft 421 kts 161°
2026-04-25 13:26 42.75285 -6.15821 26685 ft 423 kts 161°
2026-04-25 13:26 42.72469 -6.14593 27087 ft 426 kts 161°
2026-04-25 13:26 42.69630 -6.13368 27489 ft 429 kts 162°
2026-04-25 13:26 42.66769 -6.12141 27883 ft 432 kts 162°
2026-04-25 13:27 42.63894 -6.10907 28270 ft 435 kts 162°
2026-04-25 13:27 42.61007 -6.09666 28541 ft 436 kts 161°
2026-04-25 13:27 42.58111 -6.08422 28823 ft 437 kts 162°
2026-04-25 13:27 42.55212 -6.07178 29064 ft 437 kts 162°
2026-04-25 13:28 42.52333 -6.05941 29124 ft 427 kts 162°
2026-04-25 13:28 42.46620 -6.03486 29129 ft 442 kts 162°
2026-04-25 13:28 42.43653 -6.02209 29126 ft 453 kts 162°
2026-04-25 13:29 42.40611 -6.00906 29125 ft 463 kts 162°
2026-04-25 13:29 42.34409 -5.98255 29116 ft 469 kts 162°
2026-04-25 13:30 42.25095 -5.94281 29116 ft 469 kts 162°
2026-04-25 13:31 42.15763 -5.90312 29114 ft 468 kts 162°
2026-04-25 13:31 42.09543 -5.87670 29110 ft 468 kts 162°
2026-04-25 13:32 42.03327 -5.85044 29099 ft 468 kts 163°
2026-04-25 13:32 41.97129 -5.82434 29119 ft 466 kts 163°
2026-04-25 13:33 41.90987 -5.79849 29116 ft 465 kts 163°
2026-04-25 13:33 41.84815 -5.77258 29115 ft 464 kts 163°
2026-04-25 13:34 41.78665 -5.74673 29118 ft 462 kts 163°
2026-04-25 13:34 41.72530 -5.72100 29124 ft 460 kts 164°
2026-04-25 13:35 41.68442 -5.70396 29128 ft 459 kts 164°